Regional Weather Roundup
Issued by NWS Jackson, KY

Home | Current Version | Previous Version | Graphics & Text | Print | Product List | Glossary Off
Versions: 1 2 3 4 5 6 7 8 9 10 11 12 13 14 15 16 17 18 19 20 21 22 23 24 25 26 27 28 29 30 31 32 33 34 35 36 37 38 39 40 41 42 43 44 45 46 47 48 49 50

000
ASUS43 KJKL 270819
RWRJKL

EAST KENTUCKY HOURLY WEATHER ROUNDUP
NATIONAL WEATHER SERVICE JACKSON KY
300 AM EST SAT DEC 27 2014

NOTE: "FAIR" INDICATES FEW OR NO CLOUDS BELOW 12,000 FEET WITH
NO SIGNIFICANT WEATHER AND/OR OBSTRUCTIONS TO VISIBILITY.

* THESE REPORTS ARE NOT UNDER NWS QUALITY CONTROL AND MAY NOT
  REPORT WEATHER SUCH AS PRECIPITATION AND FOG.

KYZ079-080-083-085-087-088-110-112-115-119-120-270900
...EASTERN KENTUCKY...

CITY           SKY/WX    TMP DP  RH WIND       PRES   REMARKS
JACKSON        CLOUDY    46  27  47 W5        30.24R
LONDON         CLOUDY    44  33  65 CALM      30.24R
SOMERSET*      CLOUDY    43  32  65 CALM      30.25S
MONTICELLO*    CLOUDY    44  37  76 CALM      30.27R
MIDDLESBORO*   CLOUDY    41  37  86 CALM      30.27R
HARLAN APT*    CLOUDY    43  32  65 CALM      30.24R
BLACK MTN*       N/A     46  10  23 SW8         N/A
PIKEVILLE APT* CLOUDY    46  25  42 CALM      30.26R
BIG SANDY*     CLOUDY    44  32  62 CALM      30.26R
MOREHEAD APT*  CLOUDY    43  34  70 S5        30.24S
ASHLAND*       CLEAR    N/A N/A N/A CALM      30.21S
$$

KYZ035-036-041-042-044-050-067-078-099-270900
...CENTRAL KENTUCKY...

CITY           SKY/WX    TMP DP  RH WIND       PRES   REMARKS
MT STERLING*   CLOUDY    45  34  65 SW6       30.23S
FLEMING/MASON* PTCLDY    43  34  70 SW6       30.24R
DANVILLE*      CLOUDY    45  32  61 SW8       30.24R
RICHMOND*      CLOUDY    46  28  49 S5        30.20F
LEXINGTON      CLOUDY    46  34  62 SW5       30.22R
FRANKFORT      PTCLDY    46  33  60 S6        30.20R
$$

KYZ091>093-OHZ055-061-077-WVZ005-015-034-035-042-270900
...SOUTHERN OHIO/WEST VIRGINIA...

CITY           SKY/WX    TMP DP  RH WIND       PRES   REMARKS
COVINGTON      PTCLDY    41  31  67 CALM      30.19R
COLUMBUS       PTCLDY    35  31  85 CALM      30.20R
DAYTON         CLOUDY    46  35  65 S9        30.17S
WILMINGTON     CLOUDY    40  33  76 S6        30.20R
HUNTINGTON     CLOUDY    40  33  76 CALM      30.23R
CHARLESTON     CLOUDY    39  33  79 CALM      30.25R
PINEVILLE*     CLOUDY    37  36  96 MISG      30.32R
BECKLEY        CLOUDY    40  25  55 CALM      30.25R
BLUEFIELD      CLOUDY    44  16  32 SE3       30.25R
$$

VAZ002-007-008-TNZ017-027-036-066-071-270900
...SOUTHWEST VIRGINIA/EAST TENNESSEE...

CITY           SKY/WX    TMP DP  RH WIND       PRES   REMARKS
WISE*          CLOUDY    46  18  31 S6        30.24S
ABINGDON*      CLOUDY    44  28  53 CALM      30.25R
BRISTOL        CLOUDY    41  32  70 CALM      30.28R
KNOXVILLE      MOCLDY    39  35  86 CALM      30.28R
OAK RIDGE      MOCLDY    39  36  89 CALM      30.29R
CROSSVILLE     CLOUDY    48  32  53 S6        30.24R
NASHVILLE      CLOUDY    48  38  68 SE5       30.22R
$$

...KEY TO REMARKS...
VSB - VISIBILITY IN MILES
WCI - WIND CHILL INDEX
HX  - HEAT INDEX

$$


USA.gov is the U.S. government's official web portal to all federal, state and local government web resources and services.